Theta_e
338 335 340 335 333 336 334 336 337 336 336 336 336 337 334 334 333 332 331 332 332 337 343 345 345 343 343 340 338 338 338 338 338 338 337 336 334 334 333 331 330 329 329
338 340 338 337 338 338 338 338 335 335 333 333 334 333 333 332 331 330 330 330 328 330 334 339 340 340 338 338 336 336 335 335 335 334 334 333 332 331 332 332 330 329 329
338 336 335 335 336 337 337 336 333 332 329 323 325 322 323 315 315 317 315 315 317 321 327 332 334 336 336 329 331 331 332 333 331 330 328 326 326 326 325 325 329 330 329
337 337 335 335 336 335 334 330 319 316 316 316 314 313 311 312 313 312 312 315 313 313 318 328 330 333 330 326 322 324 327 325 326 324 323 322 321 321 320 320 320 323 324
339 337 335 334 335 331 320 320 317 316 314 313 311 308 308 307 306 310 308 307 308 310 311 320 322 324 326 323 322 320 320 321 321 320 320 320 319 318 318 318 318 318 319
338 335 332 324 321 321 318 316 313 313 311 306 308 307 303 303 305 303 304 307 306 307 307 305 305 308 317 319 323 318 317 318 318 319 319 318 317 316 316 315 316 317 318
336 327 322 318 320 317 314 312 309 305 305 304 302 300 301 304 301 301 303 303 306 306 304 304 303 303 304 314 316 317 316 317 317 317 316 315 315 315 314 313 313 314 315
322 320 317 316 317 314 310 307 305 302 303 303 299 298 295 298 300 301 301 303 302 304 304 305 304 304 304 303 306 318 315 315 314 314 313 313 313 313 313 313 313 312 313
318 317 316 312 312 311 307 305 304 302 300 301 301 299 293 292 296 300 301 301 302 301 301 302 304 304 304 303 306 307 313 313 311 312 312 312 312 312 312 312 313 312 312
317 316 314 311 309 308 306 305 305 302 301 299 300 304 300 300 295 294 299 300 301 302 300 301 301 303 303 303 307 309 309 309 310 312 312 312 312 313 312 312 311 312 312
315 314 311 308 307 306 304 304 303 302 302 301 300 300 300 299 298 296 293 295 299 300 301 302 301 302 303 304 302 305 308 306 307 310 311 311 312 313 312 312 311 312 311
312 312 311 307 306 305 304 304 303 304 302 302 302 302 300 298 297 296 294 294 294 298 300 301 301 302 303 302 307 308 307 305 305 308 310 311 312 311 311 312 311 311 311
310 309 309 306 305 305 305 304 303 302 302 301 301 301 302 301 301 300 297 294 294 297 297 299 300 301 304 303 303 306 307 304 304 306 308 309 310 310 310 310 310 309 309
310 308 308 307 305 305 304 303 302 302 302 301 301 301 300 300 301 300 298 295 294 295 295 295 299 299 300 301 303 303 301 302 301 302 303 305 306 307 308 308 307 307 307
310 309 306 304 304 304 303 302 301 300 301 300 299 299 299 299 299 299 299 298 295 291 292 295 293 297 298 298 299 299 297 299 299 299 300 300 302 305 306 306 305 305 305
309 306 305 305 303 303 302 302 300 301 299 298 299 298 298 299 299 298 298 297 296 293 290 294 294 295 296 297 298 296 295 299 298 298 297 298 299 302 303 304 304 304 303
307 306 306 303 303 301 301 300 300 300 299 298 299 298 297 298 297 297 296 295 294 293 289 291 293 293 292 292 293 293 294 295 295 296 296 297 298 298 300 300 300 301 301
307 306 305 304 302 302 301 300 300 299 298 297 297 297 297 298 294 292 291 290 290 290 288 285 288 288 289 290 290 289 291 292 292 294 295 295 297 297 297 298 298 297 297
305 304 303 302 302 302 302 300 300 298 297 297 296 295 294 293 290 289 288 288 288 290 289 287 286 288 288 289 288 288 289 291 292 294 293 294 295 296 297 298 297 296 296
303 302 303 304 304 302 301 299 298 296 295 296 296 294 293 290 289 288 288 287 288 287 287 286 285 285 286 287 287 286 286 289 289 292 293 293 294 296 295 296 296 296 295
302 303 303 303 302 300 297 295 294 293 293 293 293 292 291 293 293 290 288 288 288 286 285 284 283 284 284 284 284 286 286 286 287 290 290 292 291 292 294 293 294 294 295
302 302 301 300 295 295 290 291 291 291 293 291 290 289 289 291 290 290 289 289 287 283 282 283 283 283 283 284 286 285 285 284 283 290 287 287 290 289 291 292 293 293 293
300 300 299 295 293 291 290 290 289 290 290 290 288 288 288 290 288 287 287 288 286 287 285 285 283 284 284 285 286 285 285 284 284 287 286 284 288 287 290 291 292 292 291
299 298 297 294 292 292 290 289 289 289 290 289 288 287 286 285 285 286 286 285 282 283 286 287 286 286 287 288 287 287 286 285 286 287 287 283 287 286 289 289 291 289 289
298 297 297 294 292 290 289 289 289 290 289 287 288 287 287 284 287 288 283 280 279 285 287 289 289 289 289 289 289 287 285 283 282 282 285 285 284 286 287 286 284 288 288
298 297 296 296 291 290 289 289 289 287 284 282 284 285 286 285 286 286 282 282 284 284 286 286 286 286 287 287 287 287 286 282 281 280 285 282 284 285 284 285 279 283 285
Wind_Speed
6 5 5 6 5 4 4 4 3 3 2 3 4 3 4 4 5 3 3 5 9 10 12 15 12 10 9 8 9 10 11 13 15 16 16 13 14 15 16 16 15 15 15
4 4 3 4 3 4 4 2 2 2 2 2 4 4 5 5 6 6 4 5 9 9 11 12 14 14 12 10 9 11 14 14 16 16 14 14 18 17 17 18 19 18 17
6 5 4 4 3 3 3 1 1 2 4 4 3 5 4 3 2 3 4 3 5 9 8 6 6 8 13 15 13 13 11 11 14 19 21 19 21 21 23 28 18 21 21
7 5 4 3 4 3 2 3 3 3 3 4 3 4 4 5 7 7 6 5 4 4 6 7 7 9 7 11 15 13 14 15 14 16 17 17 18 20 18 20 23 21 26
7 6 4 4 3 3 4 4 4 4 3 4 4 4 5 5 6 5 7 7 6 5 4 7 7 6 6 11 13 14 16 18 14 13 14 16 17 18 18 19 19 17 19
7 6 4 5 5 5 4 5 5 4 3 2 3 4 4 4 4 5 5 5 5 5 5 6 4 3 5 10 11 16 17 16 12 13 14 15 17 17 18 19 20 21 21
6 7 5 5 6 5 6 5 3 4 5 3 3 4 4 3 5 5 4 4 6 6 6 5 3 3 4 6 8 11 16 12 8 9 11 14 17 19 19 18 20 21 22
7 7 7 6 6 6 6 6 5 2 1 3 2 2 4 5 4 3 3 4 5 4 6 7 7 6 4 4 5 10 11 5 4 7 11 13 14 16 18 20 21 22 23
6 7 8 7 6 6 5 5 5 5 2 3 5 4 2 3 4 3 5 4 6 4 5 5 6 7 7 5 7 5 5 5 4 7 9 13 13 15 17 20 23 24 23
7 8 7 7 7 5 6 5 4 4 4 2 2 3 2 3 1 4 4 5 5 6 7 6 6 6 8 6 8 6 7 9 9 9 13 16 17 18 18 18 20 23 24
8 8 8 8 7 5 6 7 5 5 3 3 2 0 1 1 1 2 4 4 4 4 5 5 5 7 7 8 5 6 11 10 10 9 12 16 17 19 21 21 20 22 24
6 7 8 7 7 6 7 5 5 6 4 3 1 1 1 1 3 1 2 3 4 5 3 6 5 6 6 5 11 13 13 10 10 11 14 14 17 18 21 21 20 21 24
5 7 7 7 5 7 7 6 5 4 3 2 2 1 1 0 1 1 1 4 4 3 3 4 5 4 6 8 9 15 15 15 15 19 19 18 16 20 21 20 19 20 23
8 8 9 8 8 8 7 6 4 3 4 3 3 2 0 2 1 0 2 2 8 5 3 6 3 3 5 7 10 21 13 16 22 21 22 24 23 22 19 19 19 19 20
9 10 10 9 8 8 7 7 4 3 3 3 3 2 1 1 2 3 3 2 2 7 8 6 2 3 5 4 9 8 12 22 25 22 21 23 24 24 24 17 17 19 18
11 11 11 10 9 8 7 6 4 4 5 2 2 2 2 3 4 4 3 4 4 5 6 4 5 6 7 9 11 11 14 21 20 19 20 24 26 24 21 18 16 17 16
14 13 12 10 10 8 7 6 5 5 6 4 3 5 5 5 4 5 5 5 5 5 8 8 8 11 14 13 12 12 13 12 11 19 23 23 20 22 20 15 18 14 14
13 13 11 10 9 9 7 7 6 5 6 5 5 7 7 6 6 5 4 5 4 5 5 14 12 10 12 15 16 17 11 11 12 18 24 24 22 22 23 16 23 12 13
12 12 12 10 9 9 9 7 7 7 6 5 6 6 6 6 5 3 4 4 3 6 8 8 12 10 11 12 13 12 13 13 10 22 23 23 23 24 23 16 13 15 14
14 11 10 9 12 8 8 9 8 7 5 5 6 6 6 4 3 5 4 4 7 9 8 8 10 10 10 10 10 12 13 9 12 12 16 18 20 18 23 21 19 18 18
11 12 11 10 8 10 7 9 8 6 5 6 6 5 4 3 6 3 2 6 5 5 7 8 9 9 9 8 10 10 11 13 12 11 11 8 12 12 10 18 17 20 19
13 12 11 11 10 7 12 12 8 5 5 5 4 1 0 2 2 5 7 9 6 5 8 8 9 9 11 10 9 10 11 11 13 3 9 14 9 11 11 9 17 20 18
12 12 10 11 10 10 13 12 9 4 4 3 3 1 1 3 4 4 6 11 7 11 12 9 11 10 13 13 12 13 12 11 11 10 9 14 8 10 8 10 17 15 19
11 11 10 11 11 8 12 12 9 5 3 6 5 3 3 3 4 5 4 5 5 8 9 6 9 11 11 13 13 12 13 13 10 8 6 11 7 9 8 9 10 17 23
9 8 10 12 11 9 12 11 7 5 5 5 5 4 3 3 6 9 5 5 6 7 7 13 15 17 20 22 19 10 9 9 10 11 7 6 3 9 9 5 3 18 24
9 8 9 9 13 9 10 10 7 4 5 3 2 2 4 5 9 11 5 4 6 8 8 9 8 9 12 13 15 7 8 9 9 6 3 7 8 4 6 2 2 8 12
Wind_Direction
181 188 186 186 193 185 197 197 218 197 252 355 334 300 297 296 312 319 301 299 236 245 258 270 273 292 300 304 311 306 304 309 305 302 288 281 246 248 245 247 251 250 244
158 155 130 134 146 168 156 171 167 144 245 252 272 289 278 326 320 324 325 326 324 316 300 303 336 357 5 360 354 358 358 351 352 348 339 340 4 350 270 239 241 242 242
156 149 145 133 154 121 129 186 264 11 20 0 334 2 22 356 325 336 356 351 18 22 356 355 17 16 16 27 13 10 1 6 359 18 30 23 14 6 11 14 321 259 232
137 130 129 152 168 158 149 66 51 80 61 38 7 25 9 6 8 360 0 30 10 24 22 48 10 21 37 37 21 9 21 4 30 9 9 9 10 8 5 10 358 341 347
135 140 150 176 160 101 100 110 63 71 35 10 16 8 11 12 3 15 23 15 8 36 58 44 25 14 3 10 3 3 353 352 5 359 354 356 355 353 348 345 348 335 335
146 141 152 151 103 124 93 73 77 34 74 48 14 10 336 11 45 24 11 22 19 33 31 32 30 1 1 357 3 352 336 335 329 343 349 348 346 343 341 338 333 335 330
154 144 149 117 127 116 119 108 102 74 37 7 43 339 327 80 54 20 357 12 9 356 1 359 348 334 337 338 327 330 323 319 316 353 352 345 340 337 337 337 336 330 316
148 160 141 132 143 113 98 90 85 86 55 30 121 67 353 333 341 29 342 9 356 355 1 352 342 336 305 294 285 301 312 296 308 337 333 328 328 326 326 329 330 329 321
147 129 135 129 120 118 127 126 112 104 103 358 52 134 29 279 332 338 337 1 352 353 331 329 314 314 314 304 299 303 195 214 262 294 309 315 315 312 318 322 324 323 322
140 131 128 122 125 123 114 120 118 117 116 84 13 54 115 169 234 329 336 332 333 338 326 318 315 309 315 310 304 288 225 228 244 276 310 318 317 312 309 310 315 317 316
141 137 131 123 126 120 117 125 122 108 105 126 134 15 349 339 149 201 285 313 316 309 302 312 301 315 308 308 306 288 265 256 256 288 298 304 309 304 304 306 309 310 313
144 139 133 125 127 118 120 120 113 103 118 117 104 91 124 135 299 309 288 285 254 294 301 302 317 301 317 316 323 317 306 281 286 292 288 290 294 291 294 295 294 301 310
152 156 135 136 130 129 125 118 113 122 128 122 130 154 93 327 226 266 294 295 299 293 296 288 296 323 339 338 322 332 342 332 323 323 313 305 294 289 285 278 279 292 302
154 150 138 129 127 122 116 118 114 119 106 116 99 90 144 295 9 271 270 321 317 299 285 280 286 325 334 333 343 345 342 340 338 330 327 319 307 297 268 257 269 283 296
153 144 137 130 132 124 126 127 124 123 104 97 100 56 99 345 5 347 323 315 282 316 306 306 287 310 321 354 333 348 336 319 316 315 316 320 316 309 281 252 269 280 291
148 144 137 134 129 128 126 123 119 117 114 115 113 64 33 17 6 360 332 327 331 322 308 6 322 323 340 330 326 324 304 299 298 301 310 312 310 309 289 266 265 272 285
149 142 138 138 133 129 129 121 132 103 105 90 57 65 36 25 14 16 21 17 3 352 316 321 327 331 330 321 329 323 317 310 314 315 311 307 313 312 304 282 269 266 282
146 140 135 133 134 132 131 130 121 118 96 84 56 54 43 32 51 32 23 1 348 333 342 317 319 324 317 323 317 318 320 308 311 309 313 314 310 310 298 307 299 290 286
142 139 132 145 135 138 129 131 118 107 99 86 75 67 53 62 37 6 359 351 332 339 321 310 310 317 315 317 314 312 307 309 307 312 313 310 307 303 293 287 290 292 299
135 134 139 139 131 141 125 111 108 92 85 74 78 74 72 60 17 11 0 335 337 329 320 309 303 308 309 314 301 310 310 311 313 309 306 300 300 307 310 302 301 302 318
134 138 143 133 127 119 121 114 100 103 101 88 77 70 69 349 357 77 3 332 332 322 310 308 299 303 307 312 310 309 302 309 311 298 305 309 311 304 300 306 308 312 312
138 147 136 127 123 113 107 107 118 126 104 110 110 109 264 311 6 351 336 326 311 309 303 308 304 303 304 306 305 304 303 310 311 274 323 303 306 301 301 301 301 303 306
139 133 135 134 118 118 128 123 127 118 113 153 145 114 19 46 18 338 301 328 311 297 280 285 293 298 302 303 300 300 302 298 296 301 305 297 305 298 293 295 291 306 314
140 138 146 135 123 145 139 134 125 119 121 102 94 72 49 6 325 330 342 333 301 274 282 275 270 282 288 295 295 297 299 294 286 284 270 292 309 300 295 295 306 326 318
136 145 142 130 144 136 148 136 123 120 102 87 65 32 36 1 339 357 325 282 278 284 275 279 279 288 290 289 288 300 308 310 313 313 294 286 309 308 294 284 319 333 332
143 141 139 142 131 140 144 136 132 114 109 93 46 4 10 20 351 328 309 292 316 315 314 307 307 304 296 292 298 299 306 309 315 313 7 324 306 320 304 292 297 344 338